Broomfield, CO

2:02 AM MST on February 14, 2016 (GMT -0700)
Jeffco

Weather History for KBJC - September, 2013

Change the Weather History Date:

Sunday, September 22, 2013

  Actual Average Record
Temperature  
Mean Temperature 65 °F -  
Max Temperature 77 °F 70 °F 89 °F (2007)
Min Temperature 53 °F 46 °F 33 °F (2000)
Growing Degree Days 15 (Base 50)    
Moisture  
Dew Point 40 °F    
Average Humidity 44    
Maximum Humidity 88    
Minimum Humidity 24    
Precipitation  
Precipitation 0.00 in - - ()
Sea Level Pressure  
Sea Level Pressure 29.78 in    
Wind  
Wind Speed 5 mph (West)    
Max Wind Speed 18 mph    
Max Gust Speed 25 mph    
Visibility 11 miles    
Events Rain , Thunderstorm    
Averages and records for this station are not official NWS values.
T = Trace of Precipitation, MM = Missing Value Source: NWS Daily Summary

Daily Weather History Graph

Daily Weather History Graph

Search for Another Location

Airport or City:

Trip Planner

Search our weather history database for the weather conditions in past years. The results will help you decide how hot, cold, wet, or windy it might be!

Date:

Astronomy

Sep. 22, 2013 Rise Set
Actual Time 6:48 AM MDT 6:57 PM MDT
Civil Twilight 6:21 AM MDT 7:24 PM MDT
Nautical Twilight 5:49 AM MDT 7:55 PM MDT
Astronomical Twilight 5:17 AM MDT 8:27 PM MDT
Moon 8:49 PM MDT (9/22) 10:10 AM MDT (9/22)
Length of Visible Light 13h 02m
Length of Day
12h 08m
Waning Gibbous, 88% of the Moon is Illuminated
Sep 22
Waning Gibbous
Sep 26
Last Quarter
Oct 4
New
Oct 11
First Quarter
Oct 18
Full

Hourly Weather History & Observations

Time (MDT) Temp. Dew Point Humidity Pressure Visibility Wind Dir Wind Speed Gust Speed Precip Events Conditions
12:15 AM 60.8 °F 39.2 °F 45% 29.87 in 10.0 mi SSW 3.5 mph - N/A   Clear
12:35 AM 60.8 °F 39.2 °F 45% 29.87 in 10.0 mi Calm Calm - N/A   Clear
12:55 AM 59.0 °F 39.2 °F 48% 29.86 in 10.0 mi SSE 6.9 mph - N/A   Clear
1:14 AM 60.8 °F 37.4 °F 42% 29.87 in 10.0 mi West 3.5 mph - N/A   Clear
1:35 AM 60.8 °F 37.4 °F 42% 29.87 in 10.0 mi West 3.5 mph - N/A   Clear
1:55 AM 59.0 °F 37.4 °F 45% 29.86 in 10.0 mi West 4.6 mph - N/A   Clear
2:15 AM 60.8 °F 35.6 °F 39% 29.86 in 10.0 mi Calm Calm - N/A   Clear
2:35 AM 60.8 °F 35.6 °F 39% 29.85 in 10.0 mi West 6.9 mph - N/A   Clear
2:54 AM 64.4 °F 32.0 °F 30% 29.85 in 10.0 mi WNW 3.5 mph - N/A   Clear
3:15 AM 59.0 °F 37.4 °F 45% 29.85 in 10.0 mi Calm Calm - N/A   Clear
3:34 AM 62.6 °F 33.8 °F 34% 29.84 in 10.0 mi NE 5.8 mph - N/A   Clear
3:55 AM 60.8 °F 33.8 °F 36% 29.84 in 10.0 mi WNW 12.7 mph - N/A   Clear
4:15 AM 59.0 °F 33.8 °F 39% 29.84 in 10.0 mi NW 9.2 mph - N/A   Clear
4:35 AM 64.4 °F 32.0 °F 30% 29.84 in 10.0 mi NW 15.0 mph - N/A   Clear
4:55 AM 64.4 °F 33.8 °F 32% 29.85 in 10.0 mi SE 4.6 mph - N/A   Clear
5:15 AM 60.8 °F 35.6 °F 39% 29.85 in 10.0 mi West 4.6 mph - N/A   Clear
5:35 AM 57.2 °F 37.4 °F 48% 29.84 in 10.0 mi SE 5.8 mph - N/A   Clear
5:47 AM 57.2 °F 37.4 °F 48% 29.85 in 30.0 mi SE 4.6 mph - N/A   Scattered Clouds
5:54 AM 59.0 °F 33.8 °F 39% 29.84 in 10.0 mi Calm Calm - N/A   Clear
6:52 AM 57.2 °F 39.2 °F 51% 29.85 in 60.0 mi Variable 3.5 mph - N/A   Scattered Clouds
7:52 AM 64.4 °F 37.4 °F 37% 29.84 in 60.0 mi Variable 3.5 mph - N/A   Scattered Clouds
8:47 AM 68.0 °F 44.6 °F 43% 29.84 in 60.0 mi Variable 3.5 mph - N/A   Scattered Clouds
9:55 AM 69.8 °F 44.6 °F 40% 29.83 in 60.0 mi Variable 4.6 mph - N/A   Mostly Cloudy
10:47 AM 75.2 °F 41.0 °F 29% 29.82 in 50.0 mi Calm Calm - N/A   Mostly Cloudy
11:47 AM 77.0 °F 37.4 °F 24% 29.80 in 50.0 mi Variable 3.5 mph - N/A   Mostly Cloudy
12:47 PM 77.0 °F 39.2 °F 26% 29.78 in 50.0 mi WNW 18.4 mph 25.3 mph N/A   Mostly Cloudy
1:46 PM 75.2 °F 41.0 °F 29% 29.75 in 50.0 mi NW 12.7 mph - N/A   Mostly Cloudy
2:45 PM 77.0 °F 39.2 °F 26% 29.71 in 30.0 mi Calm Calm - N/A   Mostly Cloudy
3:55 PM 75.2 °F 41.0 °F 29% 29.08 in 30.0 mi North 4.6 mph - N/A   Overcast
4:57 PM 71.6 °F 44.6 °F 38% 29.69 in 20.0 mi SW 12.7 mph 20.7 mph N/A Rain , Thunderstorm Light Thunderstorms and Rain
5:38 PM 66.2 °F 42.8 °F 43% 29.70 in 20.0 mi West 8.1 mph 18.4 mph N/A   Overcast
6:46 PM 64.4 °F 41.0 °F 42% 29.72 in 15.0 mi SSW 17.3 mph 24.2 mph N/A Rain Light Rain
7:47 PM 62.6 °F 44.6 °F 52% 29.67 in 15.0 mi SSW 9.2 mph - N/A   Mostly Cloudy
8:47 PM 60.8 °F 46.4 °F 59% 29.67 in 15.0 mi Variable 3.5 mph - N/A   Overcast
9:53 PM 59.0 °F 48.2 °F 67% 29.67 in 15.0 mi NW 11.5 mph - N/A   Overcast
11:15 PM 53.6 °F 50.0 °F 88% 29.69 in 7.0 mi North 9.2 mph - N/A Rain Rain
11:35 PM 53.6 °F 50.0 °F 88% 29.68 in 7.0 mi North 8.1 mph - N/A Rain Light Rain
11:55 PM 53.6 °F 50.0 °F 88% 29.68 in 10.0 mi NNW 5.8 mph - N/A Rain Rain